Time,TemperatureF,DewpointF,PressureIn,WindDirection,WindDirectionDegrees,WindSpeedMPH,WindSpeedGustMPH,Humidity,HourlyPrecipIn,Conditions,Clouds,dailyrainin,SoftwareType,DateUTC
2013-09-28 00:25:00,57.0,48.0,30.23,South,176,1.0,2.0,71,0.00,,,0.00,,2013-09-28 04:25:00,
2013-09-28 00:43:00,57.0,48.0,30.24,ESE,112,1.0,3.0,71,0.00,,,0.00,,2013-09-28 04:43:00,
2013-09-28 00:54:00,57.0,48.0,30.24,ESE,116,2.0,5.0,71,0.00,,,0.00,,2013-09-28 04:54:00,
2013-09-28 01:13:00,57.0,48.0,30.24,SE,131,1.0,3.0,72,0.00,,,0.00,,2013-09-28 05:13:00,
2013-09-28 01:22:00,56.0,47.0,30.25,SSW,213,1.0,3.0,72,0.00,,,0.00,,2013-09-28 05:22:00,
2013-09-28 01:53:00,56.0,48.0,30.25,NNW,339,0.0,1.0,74,0.00,,,0.00,,2013-09-28 05:53:00,
2013-09-28 02:13:00,55.0,47.0,30.25,NW,316,0.0,0.0,74,0.00,,,0.00,,2013-09-28 06:13:00,
2013-09-28 02:22:00,55.0,47.0,30.26,NNW,329,0.0,0.0,74,0.00,,,0.00,,2013-09-28 06:22:00,
2013-09-28 02:52:00,55.0,48.0,30.26,SE,125,0.0,1.0,76,0.00,,,0.00,,2013-09-28 06:52:00,
2013-09-28 03:12:00,55.0,48.0,30.26,East,79,1.0,2.0,76,0.00,,,0.00,,2013-09-28 07:12:00,
2013-09-28 03:22:00,55.0,48.0,30.26,ESE,103,0.0,2.0,77,0.00,,,0.00,,2013-09-28 07:22:00,
2013-09-28 03:52:00,56.0,49.0,30.26,SE,135,2.0,5.0,77,0.00,,,0.00,,2013-09-28 07:52:00,
2013-09-28 04:22:00,56.0,49.0,30.26,SE,130,1.0,2.0,77,0.00,,,0.00,,2013-09-28 08:22:00,
2013-09-28 04:53:00,55.0,48.0,30.26,ESE,119,2.0,3.0,78,0.00,,,0.00,,2013-09-28 08:53:00,
2013-09-28 05:11:00,56.0,49.0,30.27,SE,135,1.0,2.0,78,0.00,,,0.00,,2013-09-28 09:11:00,
2013-09-28 05:22:00,56.0,49.0,30.26,ESE,112,0.0,2.0,78,0.00,,,0.00,,2013-09-28 09:22:00,
2013-09-28 05:54:00,56.0,50.0,30.27,WSW,248,0.0,1.0,79,0.00,,,0.00,,2013-09-28 09:54:00,
2013-09-28 06:22:00,55.0,49.0,30.27,SE,135,0.0,0.0,79,0.00,,,0.00,,2013-09-28 10:22:00,
2013-09-28 06:52:00,55.0,49.0,30.28,NE,45,0.0,1.0,80,0.00,,,0.00,,2013-09-28 10:52:00,
2013-09-28 07:12:00,55.0,49.0,30.28,ENE,68,0.0,1.0,80,0.00,,,0.00,,2013-09-28 11:12:00,
2013-09-28 07:22:00,55.0,49.0,30.29,ENE,77,1.0,1.0,80,0.00,,,0.00,,2013-09-28 11:22:00,
2013-09-28 07:52:00,55.0,49.0,30.29,East,83,0.0,0.0,80,0.00,,,0.00,,2013-09-28 11:52:00,
2013-09-28 08:12:00,55.0,49.0,30.29,ENE,68,0.0,1.0,80,0.00,,,0.00,,2013-09-28 12:12:00,
2013-09-28 08:22:00,55.0,49.0,30.30,ESE,112,1.0,2.0,81,0.00,,,0.00,,2013-09-28 12:22:00,
2013-09-28 08:52:00,56.0,50.0,30.30,SSE,150,1.0,2.0,81,0.00,,,0.00,,2013-09-28 12:52:00,
2013-09-28 09:12:00,56.0,50.0,30.29,East,98,2.0,5.0,81,0.00,,,0.00,,2013-09-28 13:12:00,
2013-09-28 09:22:00,57.0,51.0,30.31,SE,135,2.0,6.0,80,0.00,,,0.00,,2013-09-28 13:22:00,
2013-09-28 09:52:00,58.0,52.0,30.31,SE,126,2.0,3.0,80,0.00,,,0.00,,2013-09-28 13:52:00,
2013-09-28 10:12:00,58.0,52.0,30.31,SE,127,2.0,3.0,80,0.00,,,0.00,,2013-09-28 14:12:00,
2013-09-28 10:21:00,59.0,52.0,30.32,ESE,120,2.0,5.0,78,0.00,,,0.00,,2013-09-28 14:21:00,
2013-09-28 10:52:00,60.0,52.0,30.32,SE,129,2.0,5.0,74,0.00,,,0.00,,2013-09-28 14:52:00,
2013-09-28 11:23:00,62.0,52.0,30.31,WSW,256,2.0,5.0,71,0.00,,,0.00,,2013-09-28 15:23:00,
2013-09-28 11:54:00,64.0,53.0,30.31,ESE,110,2.0,5.0,68,0.00,,,0.00,,2013-09-28 15:54:00,
2013-09-28 12:14:00,64.0,53.0,30.30,ESE,112,2.0,3.0,67,0.00,,,0.00,,2013-09-28 16:14:00,
2013-09-28 12:24:00,64.0,52.0,30.31,SE,135,2.0,3.0,66,0.00,,,0.00,,2013-09-28 16:24:00,
2013-09-28 12:54:00,65.0,53.0,30.30,ENE,68,2.0,5.0,66,0.00,,,0.00,,2013-09-28 16:54:00,
2013-09-28 13:13:00,65.0,53.0,30.29,West,270,0.0,2.0,64,0.00,,,0.00,,2013-09-28 17:13:00,
2013-09-28 13:23:00,66.0,53.0,30.29,SSE,158,1.0,6.0,63,0.00,,,0.00,,2013-09-28 17:23:00,
2013-09-28 13:52:00,66.0,52.0,30.29,South,180,2.0,5.0,60,0.00,,,0.00,,2013-09-28 17:52:00,
2013-09-28 14:12:00,67.0,52.0,30.28,East,90,2.0,5.0,58,0.00,,,0.00,,2013-09-28 18:12:00,
2013-09-28 14:22:00,68.0,53.0,30.34,ENE,68,1.0,3.0,59,0.00,,,0.00,,2013-09-28 18:22:00,
2013-09-28 14:52:00,69.0,52.0,30.27,ESE,112,2.0,5.0,55,0.00,,,0.00,,2013-09-28 18:52:00,
2013-09-28 15:11:00,69.0,52.0,30.25,ESE,112,2.0,5.0,54,0.00,,,0.00,,2013-09-28 19:11:00,
2013-09-28 15:22:00,72.0,53.0,30.26,WSW,248,3.0,8.0,51,0.00,,,0.00,,2013-09-28 19:22:00,
2013-09-28 15:52:00,70.0,50.0,30.24,ENE,68,3.0,7.0,49,0.00,,,0.00,,2013-09-28 19:52:00,
2013-09-28 16:12:00,69.0,50.0,30.24,SE,135,4.0,6.0,51,0.00,,,0.00,,2013-09-28 20:12:00,
2013-09-28 16:22:00,69.0,51.0,30.23,SE,136,1.0,5.0,53,0.00,,,0.00,,2013-09-28 20:22:00,
2013-09-28 16:53:00,71.0,52.0,30.27,WSW,248,1.0,5.0,51,0.00,,,0.00,,2013-09-28 20:53:00,
2013-09-28 17:12:00,70.0,51.0,30.27,WSW,248,3.0,6.0,51,0.00,,,0.00,,2013-09-28 21:12:00,
2013-09-28 17:23:00,71.0,52.0,30.29,SSE,158,1.0,2.0,52,0.00,,,0.00,,2013-09-28 21:23:00,
2013-09-28 17:55:00,69.0,52.0,30.29,SW,225,1.0,3.0,55,0.00,,,0.00,,2013-09-28 21:55:00,
2013-09-28 18:23:00,67.0,52.0,30.29,WSW,248,0.0,1.0,59,0.00,,,0.00,,2013-09-28 22:23:00,
2013-09-28 18:54:00,66.0,52.0,30.29,WSW,248,1.0,2.0,61,0.00,,,0.00,,2013-09-28 22:54:00,
2013-09-28 19:12:00,65.0,52.0,30.29,WSW,248,0.0,1.0,62,0.00,,,0.00,,2013-09-28 23:12:00,
2013-09-28 19:22:00,64.0,52.0,30.29,West,270,0.0,0.0,64,0.00,,,0.00,,2013-09-28 23:22:00,
2013-09-28 19:53:00,62.0,51.0,30.29,WSW,248,1.0,1.0,67,0.00,,,0.00,,2013-09-28 23:53:00,
2013-09-28 20:11:00,61.0,50.0,30.29,WSW,248,1.0,1.0,68,0.00,,,0.00,,2013-09-29 00:11:00,
2013-09-28 20:22:00,60.0,50.0,30.29,WSW,248,0.0,1.0,70,0.00,,,0.00,,2013-09-29 00:22:00,
2013-09-28 20:43:00,60.0,51.0,30.29,WSW,248,0.0,0.0,71,0.00,,,0.00,,2013-09-29 00:43:00,
2013-09-28 20:52:00,59.0,50.0,30.30,WSW,248,0.0,1.0,71,0.00,,,0.00,,2013-09-29 00:52:00,
2013-09-28 21:22:00,58.0,49.0,30.29,West,270,0.0,2.0,73,0.00,,,0.00,,2013-09-29 01:22:00,
2013-09-28 21:43:00,58.0,49.0,30.30,West,270,0.0,1.0,73,0.00,,,0.00,,2013-09-29 01:43:00,
2013-09-28 21:52:00,57.0,49.0,30.30,WSW,248,0.0,1.0,75,0.00,,,0.00,,2013-09-29 01:52:00,
2013-09-28 22:12:00,56.0,48.0,30.30,SW,225,0.0,0.0,75,0.00,,,0.00,,2013-09-29 02:12:00,
2013-09-28 22:22:00,56.0,49.0,30.30,South,180,0.0,1.0,76,0.00,,,0.00,,2013-09-29 02:22:00,
2013-09-28 22:43:00,56.0,49.0,30.30,NNW,338,0.0,0.0,77,0.00,,,0.00,,2013-09-29 02:43:00,
2013-09-28 22:53:00,56.0,49.0,30.30,NNW,338,0.0,0.0,77,0.00,,,0.00,,2013-09-29 02:53:00,
2013-09-28 23:03:00,56.0,49.0,30.30,NNW,338,0.0,0.0,77,0.00,,,0.00,,2013-09-29 03:03:00,
2013-09-28 23:12:00,56.0,49.0,30.30,NNW,338,0.0,0.0,77,0.00,,,0.00,,2013-09-29 03:12:00,